Vertical_Velocity
-1 1 1 1 -0 -0 2 2 2 1 -1 -2 -1 -2 -2 -3 -4 -0 -1 -2 -1 -1
2 -1 -1 3 5 5 3 -0 -3 -2 -3 -2 -1 1 2 -1 -3 1 -3 -3 -1 1
2 6 3 -2 -4 -2 -2 -1 -1 -1 -0 -1 -2 -1 1 -1 -3 -2 -3 -1 1 -1
-1 -2 -1 1 -1 -2 -3 -2 -1 -1 -2 -1 -0 0 1 1 -0 1 -1 -3 0 -3
1 -2 -2 -0 0 -0 -1 -2 -1 -1 -1 -1 -1 -0 -1 0 0 0 -1 -3 -1 -1
-1 -0 1 0 -1 -1 -1 -2 -2 0 1 -1 -1 -1 -2 0 -1 -0 1 1 1 -1
1 0 -2 -2 -2 -2 -1 -1 0 -2 -1 -1 -2 -3 1 -1 0 -0 0 2 1 2
-0 -1 -2 -1 1 1 2 1 1 -1 -2 -1 -2 -3 -1 0 -1 2 2 -3 2 0
0 -1 -0 -1 -2 -2 -3 -2 -2 -3 -0 -3 -3 -1 -1 1 1 -2 -2 1 1 -1
-2 -2 -2 -1 -2 -2 -2 -2 -3 -4 -2 1 -1 -1 -1 -1 4 2 1 -0 1 5
-0 1 2 -1 1 -2 -0 -2 -1 -2 -2 4 -3 -0 -0 -2 -1 3 -1 -0 6 1
1 3 -1 -2 -1 -2 1 -2 -0 -1 0 -3 -0 -0 -3 -2 -0 2 -1 1 -5 1
1 -1 -1 -0 -0 -2 1 2 0 2 -1 -3 3 -3 0 -3 -1 -1 -1 2 -3 -7
1 -1 -0 -1 -3 -1 -1 2 -1 2 2 1 -1 -0 0 -1 -4 -1 2 3 5 1
Height
5779 5778 5775 5772 5769 5767 5763 5759 5756 5752 5749 5745 5741 5736 5732 5728 5723 5719 5714 5710 5706 5703
5769 5767 5764 5761 5758 5755 5751 5748 5745 5741 5736 5732 5727 5722 5717 5713 5708 5705 5700 5697 5694 5690
5759 5756 5752 5749 5747 5744 5740 5735 5730 5726 5722 5717 5713 5708 5703 5699 5695 5691 5687 5684 5680 5676
5748 5745 5742 5738 5734 5729 5725 5720 5716 5711 5707 5702 5698 5693 5688 5684 5680 5676 5671 5668 5664 5660
5736 5732 5729 5724 5720 5715 5710 5706 5701 5696 5692 5687 5682 5678 5674 5670 5665 5661 5656 5652 5649 5644
5723 5719 5715 5710 5705 5700 5695 5690 5685 5680 5676 5670 5666 5662 5658 5654 5649 5645 5641 5636 5632 5628
5709 5705 5700 5694 5689 5684 5679 5674 5668 5664 5660 5655 5650 5646 5641 5637 5633 5628 5624 5620 5616 5612
5693 5688 5683 5677 5672 5666 5661 5656 5651 5646 5641 5636 5632 5628 5624 5619 5615 5611 5607 5603 5600 5598
5676 5671 5666 5660 5655 5649 5643 5638 5632 5628 5623 5619 5614 5610 5606 5603 5599 5595 5592 5588 5584 5582
5660 5654 5647 5641 5635 5630 5624 5619 5613 5609 5606 5601 5597 5594 5590 5586 5583 5580 5576 5573 5570 5566
5640 5633 5626 5621 5616 5611 5607 5602 5597 5593 5589 5586 5580 5577 5574 5571 5567 5564 5560 5556 5553 5550
5620 5614 5609 5603 5598 5593 5589 5585 5581 5577 5573 5570 5564 5561 5557 5554 5551 5548 5544 5540 5535 5532
5602 5596 5592 5587 5582 5578 5575 5571 5567 5562 5558 5554 5550 5544 5540 5537 5535 5532 5527 5522 5517 5512
5585 5580 5576 5571 5567 5564 5560 5556 5551 5549 5543 5538 5533 5529 5523 5518 5516 5512 5509 5505 5498 5492